| time (UTC) | temp F | wind direction | speed MPH | gust MPH | rain 1hr in | rain 24hr in | rain mn in | humidity % | barometer mb |
| 20260831212646 | 91 | 263 | 6.0 | 9.0 | 0.00 | 0.00 | 0.00 | 63 | 1013.3 |
| 20260831212143 | 91 | 310 | 7.0 | 8.0 | 0.00 | 0.00 | 0.00 | 62 | 1013.3 |
| 20260831211641 | 91 | 275 | 5.0 | 7.0 | 0.00 | 0.00 | 0.00 | 63 | 1013.2 |
| 20260831211141 | 91 | 236 | 6.0 | 8.0 | 0.00 | 0.00 | 0.00 | 63 | 1013.3 |
| 20260831210636 | 92 | 240 | 6.0 | 8.0 | 0.00 | 0.00 | 0.00 | 61 | 1013.3 |
| 20260831210132 | 90 | 206 | 5.0 | 6.0 | 0.00 | 0.00 | 0.00 | 63 | 1013.1 |
| 20260831205631 | 89 | 184 | 4.0 | 6.0 | 0.00 | 0.00 | 0.00 | 64 | 1013.5 |
| 20260831205127 | 90 | 255 | 5.0 | 7.0 | 0.00 | 0.00 | 0.00 | 63 | 1013.5 |
| 20260831204627 | 90 | 241 | 7.0 | 8.0 | 0.00 | 0.00 | 0.00 | 62 | 1013.5 |
| 20260831204126 | 91 | 336 | 5.0 | 6.0 | 0.00 | 0.00 | 0.00 | 62 | 1013.4 |
| 20260831203620 | 91 | 204 | 6.0 | 7.0 | 0.00 | 0.00 | 0.00 | 60 | 1013.3 |
| 20260831203120 | 91 | 230 | 4.0 | 4.0 | 0.00 | 0.00 | 0.00 | 60 | 1013.3 |
| 20260831202619 | 91 | 221 | 3.0 | 3.0 | 0.00 | 0.00 | 0.00 | 61 | 1013.3 |
| 20260831202119 | 91 | 270 | 4.0 | 7.0 | 0.00 | 0.00 | 0.00 | 61 | 1013.2 |
| 20260831201618 | 91 | 291 | 2.0 | 3.0 | 0.00 | 0.00 | 0.00 | 60 | 1013.5 |
| 20260831201114 | 91 | 240 | 6.0 | 8.0 | 0.00 | 0.00 | 0.00 | 61 | 1013.5 |
| 20260831200610 | 90 | 261 | 5.0 | 6.0 | 0.00 | 0.00 | 0.00 | 61 | 1013.4 |
| 20260831200109 | 91 | 280 | 4.0 | 6.0 | 0.00 | 0.00 | 0.00 | 59 | 1013.4 |
| 20260831195605 | 91 | 222 | 6.0 | 7.0 | 0.00 | 0.00 | 0.00 | 58 | 1013.3 |
| 20260831195100 | 90 | 246 | 5.0 | 6.0 | 0.00 | 0.00 | 0.00 | 61 | 1013.6 |
| 20260831194555 | 91 | 297 | 3.0 | 3.0 | 0.00 | 0.00 | 0.00 | 59 | 1013.5 |
| 20260831194049 | 91 | 348 | 4.0 | 4.0 | 0.00 | 0.00 | 0.00 | 60 | 1013.4 |
| 20260831193546 | 90 | 321 | 1.0 | 1.0 | 0.00 | 0.00 | 0.00 | 59 | 1013.6 |
| 20260831193045 | 89 | 270 | 4.0 | 4.0 | 0.00 | 0.00 | 0.00 | 62 | 1013.5 |
| 20260831192540 | 90 | 287 | 4.0 | 4.0 | 0.00 | 0.00 | 0.00 | 61 | 1013.3 |
| 20260831192035 | 90 | 257 | 5.0 | 7.0 | 0.00 | 0.00 | 0.00 | 61 | 1013.4 |
| 20260831191531 | 90 | 265 | 2.0 | 3.0 | 0.00 | 0.00 | 0.00 | 60 | 1013.3 |
| 20260831191027 | 89 | 237 | 4.0 | 4.0 | 0.00 | 0.00 | 0.00 | 60 | 1013.5 |
| 20260831190522 | 89 | 347 | 4.0 | 6.0 | 0.00 | 0.00 | 0.00 | 61 | 1013.2 |
| 20260831190021 | 90 | 285 | 8.0 | 10.0 | 0.00 | 0.00 | 0.00 | 61 | 1013.3 |
| 20260831185517 | 90 | 260 | 2.0 | 3.0 | 0.00 | 0.00 | 0.00 | 60 | 1013.3 |
| 20260831185012 | 89 | 266 | 4.0 | 4.0 | 0.00 | 0.00 | 0.00 | 61 | 1013.3 |
| 20260831184507 | 88 | 247 | 6.0 | 7.0 | 0.00 | 0.00 | 0.00 | 63 | 1013.3 |
| 20260831184002 | 89 | 329 | 3.0 | 3.0 | 0.00 | 0.00 | 0.00 | 61 | 1013.5 |
| 20260831183501 | 89 | 327 | 4.0 | 6.0 | 0.00 | 0.00 | 0.00 | 60 | 1013.5 |
| 20260831183001 | 89 | 313 | 3.0 | 3.0 | 0.00 | 0.00 | 0.00 | 61 | 1013.4 |
| 20260831182456 | 89 | 264 | 6.0 | 7.0 | 0.00 | 0.00 | 0.00 | 59 | 1013.5 |
| 20260831181951 | 87 | 294 | 2.0 | 3.0 | 0.00 | 0.00 | 0.00 | 62 | 1013.6 |
| 20260831181446 | 88 | 262 | 7.0 | 8.0 | 0.00 | 0.00 | 0.00 | 62 | 1013.6 |
| 20260831180941 | 88 | 276 | 6.0 | 6.0 | 0.00 | 0.00 | 0.00 | 62 | 1013.9 |
| 20260831180435 | 87 | 263 | 4.0 | 7.0 | 0.00 | 0.00 | 0.00 | 61 | 1014.1 |
| 20260831175934 | 87 | 341 | 4.0 | 4.0 | 0.00 | 0.00 | 0.00 | 62 | 1014.2 |
| 20260831175431 | 87 | 330 | 2.0 | 3.0 | 0.00 | 0.00 | 0.00 | 63 | 1013.7 |
| 20260831174926 | 88 | 295 | 3.0 | 3.0 | 0.00 | 0.00 | 0.00 | 60 | 1014.0 |
| 20260831174422 | 87 | 312 | 2.0 | 3.0 | 0.00 | 0.00 | 0.00 | 63 | 1014.0 |
| 20260831173921 | 86 | 285 | 5.0 | 6.0 | 0.00 | 0.00 | 0.00 | 64 | 1013.6 |
| 20260831173420 | 86 | 269 | 5.0 | 6.0 | 0.00 | 0.00 | 0.00 | 64 | 1013.7 |
| 20260831172916 | 86 | 269 | 3.0 | 3.0 | 0.00 | 0.00 | 0.00 | 63 | 1013.6 |
| 20260831172412 | 86 | 267 | 3.0 | 3.0 | 0.00 | 0.00 | 0.00 | 62 | 1013.7 |
| 20260831171911 | 87 | 254 | 4.0 | 6.0 | 0.00 | 0.00 | 0.00 | 60 | 1013.6 |
| 20260831171408 | 88 | 306 | 4.0 | 4.0 | 0.00 | 0.00 | 0.00 | 60 | 1013.9 |
| 20260831170904 | 87 | 242 | 2.0 | 3.0 | 0.00 | 0.00 | 0.00 | 61 | 1014.0 |
| 20260831170400 | 86 | 293 | 3.0 | 3.0 | 0.00 | 0.00 | 0.00 | 64 | 1014.0 |
| 20260831165856 | 85 | 210 | 3.0 | 4.0 | 0.00 | 0.00 | 0.00 | 64 | 1014.1 |
| 20260831165352 | 86 | 305 | 6.0 | 8.0 | 0.00 | 0.00 | 0.00 | 64 | 1014.0 |
| 20260831164848 | 85 | 347 | 4.0 | 7.0 | 0.00 | 0.00 | 0.00 | 64 | 1014.3 |
| 20260831164344 | 86 | 242 | 5.0 | 8.0 | 0.00 | 0.00 | 0.00 | 63 | 1014.2 |
| 20260831163840 | 85 | 272 | 6.0 | 8.0 | 0.00 | 0.00 | 0.00 | 65 | 1014.3 |
| 20260831163335 | 85 | 252 | 3.0 | 6.0 | 0.00 | 0.00 | 0.00 | 64 | 1014.1 |
| 20260831162833 | 85 | 312 | 4.0 | 6.0 | 0.00 | 0.00 | 0.00 | 65 | 1014.1 |
| 20260831162329 | 85 | 252 | 5.0 | 7.0 | 0.00 | 0.00 | 0.00 | 66 | 1014.2 |
| 20260831161828 | 85 | 277 | 4.0 | 4.0 | 0.00 | 0.00 | 0.00 | 66 | 1014.0 |
| 20260831161324 | 84 | 283 | 4.0 | 4.0 | 0.00 | 0.00 | 0.00 | 66 | 1014.0 |
| 20260831160819 | 84 | 256 | 3.0 | 3.0 | 0.00 | 0.00 | 0.00 | 65 | 1014.1 |
| 20260831160314 | 84 | 341 | 3.0 | 4.0 | 0.00 | 0.00 | 0.00 | 66 | 1014.1 |
| 20260831155814 | 84 | 259 | 4.0 | 4.0 | 0.00 | 0.00 | 0.00 | 66 | 1014.0 |
| 20260831155309 | 84 | 336 | 1.0 | 1.0 | 0.00 | 0.00 | 0.00 | 66 | 1014.1 |
| 20260831154805 | 83 | 275 | 4.0 | 6.0 | 0.00 | 0.00 | 0.00 | 66 | 1013.9 |
| 20260831154301 | 83 | 302 | 6.0 | 7.0 | 0.00 | 0.00 | 0.00 | 66 | 1013.6 |
| 20260831153759 | 83 | 274 | 7.0 | 9.0 | 0.00 | 0.00 | 0.00 | 66 | 1013.7 |
| 20260831153255 | 83 | 189 | 5.0 | 8.0 | 0.00 | 0.00 | 0.00 | 67 | 1013.7 |
| 20260831152751 | 84 | 202 | 9.0 | 10.0 | 0.00 | 0.00 | 0.00 | 66 | 1014.0 |
| 20260831152247 | 84 | 277 | 4.0 | 6.0 | 0.00 | 0.00 | 0.00 | 65 | 1013.6 |
| 20260831151741 | 84 | 224 | 8.0 | 10.0 | 0.00 | 0.00 | 0.00 | 65 | 1013.4 |
| 20260831151241 | 84 | 238 | 8.0 | 10.0 | 0.00 | 0.00 | 0.00 | 65 | 1013.3 |
| 20260831150736 | 84 | 281 | 6.0 | 6.0 | 0.00 | 0.00 | 0.00 | 65 | 1013.3 |
| 20260831150231 | 83 | 246 | 9.0 | 10.0 | 0.00 | 0.00 | 0.00 | 66 | 1013.2 |
| 20260831145730 | 83 | 252 | 8.0 | 10.0 | 0.00 | 0.00 | 0.00 | 66 | 1013.1 |
| 20260831145227 | 83 | 277 | 8.0 | 13.0 | 0.00 | 0.00 | 0.00 | 66 | 1013.1 |
| 20260831144722 | 83 | 207 | 6.0 | 9.0 | 0.00 | 0.00 | 0.00 | 66 | 1013.1 |
| 20260831144219 | 83 | 270 | 4.0 | 4.0 | 0.00 | 0.00 | 0.00 | 66 | 1013.1 |
| 20260831143717 | 82 | 281 | 5.0 | 6.0 | 0.00 | 0.00 | 0.00 | 67 | 1013.1 |
| 20260831143213 | 82 | 309 | 8.0 | 11.0 | 0.00 | 0.00 | 0.00 | 68 | 1013.0 |
| 20260831142709 | 82 | 264 | 7.0 | 9.0 | 0.00 | 0.00 | 0.00 | 69 | 1013.1 |
| 20260831142204 | 82 | 243 | 6.0 | 8.0 | 0.00 | 0.00 | 0.00 | 68 | 1013.0 |
| 20260831141703 | 81 | 285 | 4.0 | 6.0 | 0.00 | 0.00 | 0.00 | 70 | 1013.1 |
| 20260831141158 | 81 | 261 | 4.0 | 6.0 | 0.00 | 0.00 | 0.00 | 70 | 1012.8 |
| 20260831140658 | 80 | 213 | 7.0 | 10.0 | 0.00 | 0.00 | 0.00 | 70 | 1012.7 |
| 20260831140153 | 80 | 273 | 8.0 | 9.0 | 0.00 | 0.00 | 0.00 | 71 | 1013.1 |
| 20260831135650 | 79 | 230 | 4.0 | 7.0 | 0.00 | 0.00 | 0.00 | 72 | 1013.0 |
| 20260831135146 | 79 | 263 | 5.0 | 7.0 | 0.00 | 0.00 | 0.00 | 73 | 1012.9 |
| 20260831134642 | 79 | 242 | 8.0 | 10.0 | 0.00 | 0.00 | 0.00 | 73 | 1012.8 |
| 20260831134138 | 79 | 336 | 5.0 | 7.0 | 0.00 | 0.00 | 0.00 | 73 | 1012.8 |
| 20260831133636 | 78 | 220 | 6.0 | 7.0 | 0.00 | 0.00 | 0.00 | 74 | 1013.0 |
| 20260831133131 | 78 | 265 | 3.0 | 4.0 | 0.00 | 0.00 | 0.00 | 74 | 1013.0 |
| 20260831132627 | 78 | 242 | 5.0 | 7.0 | 0.00 | 0.00 | 0.00 | 74 | 1013.0 |
| 20260831132126 | 77 | 224 | 4.0 | 4.0 | 0.00 | 0.00 | 0.00 | 75 | 1013.1 |
| 20260831131621 | 77 | 273 | 5.0 | 6.0 | 0.00 | 0.00 | 0.00 | 76 | 1013.0 |
| 20260831131118 | 77 | 245 | 2.0 | 2.0 | 0.00 | 0.00 | 0.00 | 75 | 1012.6 |
| 20260831130613 | 77 | 256 | 6.0 | 7.0 | 0.00 | 0.00 | 0.00 | 75 | 1012.9 |
| 20260831130109 | 77 | 255 | 5.0 | 7.0 | 0.00 | 0.00 | 0.00 | 75 | 1012.8 |
| 20260831125606 | 77 | 252 | 3.0 | 4.0 | 0.00 | 0.00 | 0.00 | 75 | 1012.8 |
| 20260831125102 | 77 | 257 | 4.0 | 4.0 | 0.00 | 0.00 | 0.00 | 76 | 1012.9 |
| 20260831124559 | 76 | 328 | 2.0 | 2.0 | 0.00 | 0.00 | 0.00 | 76 | 1012.9 |
| 20260831124054 | 76 | 268 | 3.0 | 3.0 | 0.00 | 0.00 | 0.00 | 76 | 1012.7 |
| 20260831123553 | 76 | 313 | 3.0 | 4.0 | 0.00 | 0.00 | 0.00 | 77 | 1012.8 |
| 20260831123048 | 75 | 246 | 3.0 | 3.0 | 0.00 | 0.00 | 0.00 | 77 | 1012.8 |
| 20260831122548 | 75 | 260 | 2.0 | 3.0 | 0.00 | 0.00 | 0.00 | 77 | 1012.6 |
| 20260831122044 | 75 | 320 | 2.0 | 2.0 | 0.00 | 0.00 | 0.00 | 78 | 1012.7 |
| 20260831121538 | 75 | 335 | 1.0 | 2.0 | 0.00 | 0.00 | 0.00 | 78 | 1012.6 |
| 20260831121034 | 75 | 238 | 3.0 | 3.0 | 0.00 | 0.00 | 0.00 | 78 | 1012.7 |
| 20260831120533 | 75 | 308 | 1.0 | 2.0 | 0.00 | 0.00 | 0.00 | 79 | 1012.5 |
| 20260831120029 | 74 | 341 | 0.0 | 1.0 | 0.00 | 0.00 | 0.00 | 79 | 1012.5 |
| 20260831115525 | 74 | 260 | 2.0 | 3.0 | 0.00 | 0.00 | 0.00 | 78 | 1012.3 |
| 20260831115021 | 74 | 338 | 2.0 | 2.0 | 0.00 | 0.00 | 0.00 | 79 | 1012.4 |
| 20260831114519 | 74 | 340 | 2.0 | 2.0 | 0.00 | 0.00 | 0.00 | 79 | 1012.5 |
| 20260831114014 | 74 | 352 | 2.0 | 2.0 | 0.00 | 0.00 | 0.00 | 79 | 1012.3 |
| 20260831113513 | 74 | 293 | 2.0 | 2.0 | 0.00 | 0.00 | 0.00 | 79 | 1012.4 |
| 20260831113010 | 74 | 285 | 1.0 | 2.0 | 0.00 | 0.00 | 0.00 | 79 | 1012.3 |
| 20260831112503 | 74 | 203 | 3.0 | 3.0 | 0.00 | 0.00 | 0.00 | 79 | 1012.4 |
| 20260831111958 | 74 | 255 | 2.0 | 3.0 | 0.00 | 0.00 | 0.00 | 79 | 1012.5 |
| 20260831111454 | 74 | 347 | 1.0 | 2.0 | 0.00 | 0.00 | 0.00 | 79 | 1012.5 |
| 20260831110949 | 74 | 208 | 3.0 | 3.0 | 0.00 | 0.00 | 0.00 | 80 | 1012.4 |
| 20260831110444 | 74 | 325 | 2.0 | 3.0 | 0.00 | 0.00 | 0.00 | 79 | 1012.6 |
| 20260831105943 | 74 | 252 | 3.0 | 3.0 | 0.00 | 0.00 | 0.00 | 80 | 1012.8 |
| 20260831105439 | 74 | 267 | 1.0 | 2.0 | 0.00 | 0.00 | 0.00 | 79 | 1012.6 |
| 20260831104939 | 74 | 283 | 2.0 | 2.0 | 0.00 | 0.00 | 0.00 | 79 | 1012.6 |
| 20260831104435 | 74 | 218 | 3.0 | 3.0 | 0.00 | 0.00 | 0.00 | 79 | 1012.6 |
| 20260831103931 | 74 | 251 | 2.0 | 2.0 | 0.00 | 0.00 | 0.00 | 79 | 1012.7 |
| 20260831103426 | 74 | 349 | 2.0 | 2.0 | 0.00 | 0.00 | 0.00 | 79 | 1012.7 |
| 20260831102921 | 74 | 289 | 2.0 | 3.0 | 0.00 | 0.00 | 0.00 | 79 | 1012.8 |
| 20260831102416 | 74 | 252 | 2.0 | 2.0 | 0.00 | 0.00 | 0.00 | 79 | 1012.8 |
| 20260831101911 | 74 | 308 | 1.0 | 1.0 | 0.00 | 0.00 | 0.00 | 79 | 1012.8 |
| 20260831101406 | 74 | 289 | 2.0 | 2.0 | 0.00 | 0.00 | 0.00 | 79 | 1012.8 |
| 20260831100903 | 74 | 276 | 2.0 | 2.0 | 0.00 | 0.00 | 0.00 | 79 | 1012.7 |
| 20260831100358 | 74 | 207 | 2.0 | 2.0 | 0.00 | 0.00 | 0.00 | 79 | 1012.9 |
| 20260831095858 | 74 | 298 | 2.0 | 2.0 | 0.00 | 0.00 | 0.00 | 79 | 1012.8 |
| 20260831095357 | 74 | 225 | 4.0 | 4.0 | 0.00 | 0.00 | 0.00 | 79 | 1012.9 |
| 20260831094853 | 74 | 294 | 2.0 | 3.0 | 0.00 | 0.00 | 0.00 | 79 | 1012.9 |
| 20260831094348 | 74 | 341 | 2.0 | 3.0 | 0.00 | 0.00 | 0.00 | 79 | 1012.8 |
| 20260831093844 | 74 | 231 | 3.0 | 3.0 | 0.00 | 0.00 | 0.00 | 79 | 1013.0 |
| 20260831093339 | 74 | 312 | 2.0 | 2.0 | 0.00 | 0.00 | 0.00 | 79 | 1013.0 |
| 20260831092836 | 74 | 315 | 2.0 | 2.0 | 0.00 | 0.00 | 0.00 | 79 | 1012.9 |
| 20260831092331 | 74 | 306 | 2.0 | 2.0 | 0.00 | 0.00 | 0.00 | 79 | 1012.9 |
| 20260831091825 | 74 | 287 | 1.0 | 2.0 | 0.00 | 0.00 | 0.00 | 79 | 1013.0 |
| 20260831091316 | 74 | 308 | 2.0 | 2.0 | 0.00 | 0.00 | 0.00 | 79 | 1013.0 |
| 20260831090811 | 74 | 219 | 2.0 | 2.0 | 0.00 | 0.00 | 0.00 | 79 | 1013.1 |
| 20260831090306 | 74 | 205 | 3.0 | 3.0 | 0.00 | 0.00 | 0.00 | 79 | 1013.1 |
| 20260831085802 | 74 | 221 | 2.0 | 3.0 | 0.00 | 0.00 | 0.00 | 79 | 1013.2 |
| 20260831085252 | 74 | 340 | 2.0 | 3.0 | 0.00 | 0.00 | 0.00 | 78 | 1013.1 |
| 20260831084746 | 74 | 222 | 4.0 | 4.0 | 0.00 | 0.00 | 0.00 | 78 | 1012.9 |
| 20260831084243 | 74 | 234 | 3.0 | 4.0 | 0.00 | 0.00 | 0.00 | 79 | 1012.9 |
| 20260831083738 | 74 | 322 | 2.0 | 2.0 | 0.00 | 0.00 | 0.00 | 79 | 1013.1 |
| 20260831083234 | 74 | 198 | 3.0 | 3.0 | 0.00 | 0.00 | 0.00 | 79 | 1012.9 |
| 20260831082732 | 74 | 217 | 4.0 | 6.0 | 0.00 | 0.00 | 0.00 | 80 | 1012.9 |
| 20260831082228 | 74 | 277 | 2.0 | 3.0 | 0.00 | 0.00 | 0.00 | 80 | 1012.9 |
| 20260831081723 | 74 | 318 | 2.0 | 4.0 | 0.00 | 0.00 | 0.00 | 80 | 1012.8 |
| 20260831081219 | 74 | 265 | 2.0 | 2.0 | 0.00 | 0.00 | 0.00 | 81 | 1012.8 |
| 20260831080714 | 74 | 321 | 2.0 | 3.0 | 0.00 | 0.00 | 0.00 | 81 | 1012.8 |
| 20260831080213 | 74 | 196 | 4.0 | 4.0 | 0.00 | 0.00 | 0.00 | 81 | 1012.8 |
| 20260831075709 | 74 | 236 | 2.0 | 3.0 | 0.00 | 0.00 | 0.00 | 81 | 1012.7 |
| 20260831075205 | 74 | 282 | 2.0 | 2.0 | 0.00 | 0.00 | 0.00 | 81 | 1012.9 |
| 20260831074704 | 74 | 314 | 2.0 | 2.0 | 0.00 | 0.00 | 0.00 | 81 | 1012.7 |
| 20260831074159 | 74 | 309 | 1.0 | 2.0 | 0.00 | 0.00 | 0.00 | 81 | 1012.7 |
| 20260831073654 | 74 | 203 | 2.0 | 2.0 | 0.00 | 0.00 | 0.00 | 81 | 1012.7 |
| 20260831073153 | 74 | 227 | 3.0 | 3.0 | 0.00 | 0.00 | 0.00 | 81 | 1012.8 |
| 20260831072649 | 74 | 181 | 1.0 | 2.0 | 0.00 | 0.00 | 0.00 | 82 | 1012.9 |
| 20260831072145 | 74 | 206 | 3.0 | 3.0 | 0.00 | 0.00 | 0.00 | 82 | 1013.0 |
| 20260831071644 | 74 | 220 | 3.0 | 4.0 | 0.00 | 0.00 | 0.00 | 82 | 1013.1 |
| 20260831071139 | 74 | 306 | 2.0 | 2.0 | 0.00 | 0.00 | 0.00 | 82 | 1013.1 |
| 20260831070638 | 74 | 298 | 2.0 | 2.0 | 0.00 | 0.00 | 0.00 | 82 | 1013.2 |
| 20260831070133 | 74 | 340 | 1.0 | 3.0 | 0.00 | 0.00 | 0.00 | 83 | 1013.3 |
| 20260831065631 | 74 | 282 | 3.0 | 3.0 | 0.00 | 0.00 | 0.00 | 83 | 1013.2 |
| 20260831065125 | 74 | 235 | 3.0 | 4.0 | 0.00 | 0.00 | 0.00 | 84 | 1013.3 |
| 20260831064625 | 74 | 320 | 1.0 | 2.0 | 0.00 | 0.00 | 0.00 | 85 | 1013.4 |
| 20260831064121 | 74 | 329 | 2.0 | 2.0 | 0.00 | 0.00 | 0.00 | 85 | 1013.4 |
| 20260831063617 | 74 | 305 | 1.0 | 1.0 | 0.00 | 0.00 | 0.00 | 86 | 1013.5 |
| 20260831063112 | 74 | 16 | 2.0 | 2.0 | 0.00 | 0.00 | 0.00 | 86 | 1013.5 |
| 20260831062607 | 74 | 306 | 2.0 | 2.0 | 0.00 | 0.00 | 0.00 | 87 | 1013.5 |
| 20260831062106 | 73 | 250 | 2.0 | 2.0 | 0.00 | 0.00 | 0.00 | 88 | 1013.6 |
| 20260831061604 | 73 | 339 | 2.0 | 2.0 | 0.00 | 0.00 | 0.00 | 88 | 1013.5 |
| 20260831061100 | 73 | 161 | 2.0 | 3.0 | 0.00 | 0.00 | 0.00 | 88 | 1013.5 |
| 20260831060556 | 73 | 11 | 2.0 | 2.0 | 0.00 | 0.00 | 0.00 | 89 | 1013.5 |
| 20260831060050 | 73 | 318 | 1.0 | 2.0 | 0.00 | 0.00 | 0.00 | 89 | 1013.5 |
| 20260831055545 | 73 | 326 | 2.0 | 3.0 | 0.00 | 0.00 | 0.00 | 88 | 1013.5 |
| 20260831055041 | 74 | 345 | 2.0 | 2.0 | 0.00 | 0.00 | 0.00 | 88 | 1013.6 |
| 20260831054540 | 74 | 173 | 3.0 | 4.0 | 0.00 | 0.00 | 0.00 | 88 | 1013.5 |
| 20260831054039 | 74 | 147 | 2.0 | 3.0 | 0.00 | 0.00 | 0.00 | 88 | 1013.5 |
| 20260831053538 | 74 | 301 | 1.0 | 2.0 | 0.00 | 0.00 | 0.00 | 88 | 1013.7 |
| 20260831053033 | 74 | 206 | 4.0 | 7.0 | 0.00 | 0.00 | 0.00 | 88 | 1013.6 |
| 20260831052532 | 74 | 198 | 6.0 | 7.0 | 0.00 | 0.00 | 0.00 | 88 | 1013.4 |
| 20260831052026 | 74 | 328 | 1.0 | 2.0 | 0.00 | 0.00 | 0.00 | 88 | 1013.4 |
| 20260831051524 | 74 | 282 | 4.0 | 4.0 | 0.00 | 0.00 | 0.00 | 88 | 1013.5 |
| 20260831051024 | 74 | 330 | 1.0 | 1.0 | 0.00 | 0.00 | 0.00 | 88 | 1013.6 |
| 20260831050523 | 74 | 214 | 2.0 | 4.0 | 0.00 | 0.00 | 0.00 | 89 | 1013.5 |
| 20260831050022 | 75 | 197 | 3.0 | 3.0 | 0.00 | 0.30 | 0.30 | 88 | 1013.6 |
| 20260831045521 | 75 | 347 | 0.0 | 1.0 | 0.00 | 0.30 | 0.30 | 88 | 1013.9 |
| 20260831045017 | 75 | 325 | 0.0 | 1.0 | 0.00 | 0.30 | 0.30 | 87 | 1013.9 |
| 20260831044512 | 75 | 299 | 2.0 | 3.0 | 0.00 | 0.30 | 0.30 | 88 | 1013.9 |
| 20260831044007 | 75 | 324 | 1.0 | 1.0 | 0.00 | 0.30 | 0.30 | 88 | 1013.5 |
| 20260831043507 | 75 | 101 | 4.0 | 6.0 | 0.00 | 0.30 | 0.30 | 88 | 1013.7 |
| 20260831043002 | 75 | 171 | 3.0 | 4.0 | 0.00 | 0.30 | 0.30 | 88 | 1013.6 |
| 20260831042502 | 75 | 228 | 2.0 | 2.0 | 0.00 | 0.30 | 0.30 | 89 | 1013.6 |
| 20260831041957 | 75 | 92 | 5.0 | 7.0 | 0.00 | 0.30 | 0.30 | 89 | 1013.7 |
| 20260831041452 | 75 | 10 | 2.0 | 3.0 | 0.00 | 0.30 | 0.30 | 89 | 1013.7 |
| 20260831040951 | 75 | 186 | 4.0 | 4.0 | 0.00 | 0.30 | 0.30 | 89 | 1013.6 |
| 20260831040446 | 75 | 24 | 1.0 | 2.0 | 0.00 | 0.30 | 0.30 | 89 | 1013.9 |
| 20260831035943 | 75 | 260 | 4.0 | 7.0 | 0.00 | 0.30 | 0.30 | 88 | 1014.0 |
| 20260831035443 | 75 | 289 | 2.0 | 2.0 | 0.00 | 0.30 | 0.30 | 89 | 1014.1 |
| 20260831034938 | 74 | 350 | 1.0 | 2.0 | 0.00 | 0.30 | 0.30 | 89 | 1014.2 |
| 20260831034433 | 74 | 207 | 3.0 | 3.0 | 0.00 | 0.30 | 0.30 | 89 | 1014.1 |
| 20260831033928 | 74 | 213 | 4.0 | 6.0 | 0.00 | 0.30 | 0.30 | 90 | 1013.7 |
| 20260831033424 | 74 | 234 | 3.0 | 4.0 | 0.00 | 0.30 | 0.30 | 89 | 1013.9 |
| 20260831032920 | 74 | 210 | 5.0 | 6.0 | 0.00 | 0.30 | 0.30 | 89 | 1014.1 |
| 20260831032419 | 75 | 171 | 3.0 | 6.0 | 0.00 | 0.30 | 0.30 | 89 | 1014.2 |
| 20260831031915 | 75 | 343 | 3.0 | 4.0 | 0.00 | 0.30 | 0.30 | 88 | 1014.3 |
| 20260831031414 | 75 | 36 | 2.0 | 2.0 | 0.00 | 0.30 | 0.30 | 87 | 1014.5 |
| 20260831030908 | 75 | 95 | 3.0 | 4.0 | 0.00 | 0.30 | 0.30 | 87 | 1014.5 |
| 20260831030408 | 76 | 189 | 4.0 | 4.0 | 0.00 | 0.30 | 0.30 | 86 | 1014.3 |
| 20260831025906 | 76 | 236 | 3.0 | 3.0 | 0.00 | 0.30 | 0.30 | 86 | 1014.4 |
| 20260831025406 | 76 | 186 | 3.0 | 3.0 | 0.00 | 0.30 | 0.30 | 85 | 1014.4 |
| 20260831024902 | 75 | 159 | 3.0 | 3.0 | 0.00 | 0.30 | 0.30 | 86 | 1014.5 |
| 20260831024401 | 75 | 146 | 4.0 | 6.0 | 0.00 | 0.30 | 0.30 | 86 | 1014.4 |
| 20260831023901 | 75 | 359 | 1.0 | 2.0 | 0.00 | 0.30 | 0.30 | 87 | 1014.5 |
| 20260831023359 | 74 | 250 | 3.0 | 3.0 | 0.00 | 0.30 | 0.30 | 88 | 1014.5 |
| 20260831022855 | 74 | 3 | 0.0 | 0.0 | 0.00 | 0.30 | 0.30 | 89 | 1014.6 |
| 20260831022353 | 74 | 346 | 1.0 | 1.0 | 0.00 | 0.30 | 0.30 | 88 | 1014.6 |
| 20260831021848 | 74 | 353 | 0.0 | 1.0 | 0.00 | 0.30 | 0.30 | 88 | 1014.7 |
| 20260831021348 | 74 | 2 | 1.0 | 1.0 | 0.00 | 0.30 | 0.30 | 88 | 1014.3 |
| 20260831020844 | 74 | 344 | 0.0 | 1.0 | 0.00 | 0.30 | 0.30 | 88 | 1014.3 |
| 20260831020344 | 74 | 351 | 0.0 | 1.0 | 0.00 | 0.30 | 0.30 | 88 | 1014.5 |
| 20260831015839 | 74 | 8 | 1.0 | 2.0 | 0.00 | 0.30 | 0.30 | 88 | 1014.4 |
| 20260831015335 | 74 | 347 | 2.0 | 2.0 | 0.00 | 0.30 | 0.30 | 88 | 1014.4 |
| 20260831014835 | 74 | 92 | 1.0 | 2.0 | 0.00 | 0.30 | 0.30 | 88 | 1014.4 |
| 20260831014330 | 74 | 349 | 2.0 | 2.0 | 0.00 | 0.30 | 0.30 | 88 | 1014.2 |
| 20260831013826 | 74 | 40 | 2.0 | 3.0 | 0.00 | 0.30 | 0.30 | 88 | 1014.2 |
| 20260831013325 | 74 | 5 | 1.0 | 1.0 | 0.00 | 0.30 | 0.30 | 88 | 1014.2 |
| 20260831012820 | 74 | 75 | 2.0 | 3.0 | 0.00 | 0.30 | 0.30 | 88 | 1014.0 |
| 20260831012316 | 74 | 350 | 2.0 | 3.0 | 0.00 | 0.30 | 0.30 | 88 | 1014.0 |
| 20260831011815 | 73 | 91 | 4.0 | 4.0 | 0.00 | 0.30 | 0.30 | 89 | 1013.7 |
| 20260831011310 | 73 | 217 | 2.0 | 3.0 | 0.00 | 0.30 | 0.30 | 89 | 1013.9 |
| 20260831010801 | 73 | 84 | 3.0 | 3.0 | 0.00 | 0.30 | 0.30 | 89 | 1013.9 |
| 20260831010300 | 73 | 83 | 3.0 | 3.0 | 0.00 | 0.30 | 0.30 | 89 | 1014.0 |
| 20260831005756 | 73 | 43 | 4.0 | 6.0 | 0.00 | 0.30 | 0.30 | 89 | 1014.2 |
| 20260831005252 | 74 | 339 | 2.0 | 2.0 | 0.00 | 0.30 | 0.30 | 89 | 1014.2 |
| 20260831004746 | 74 | 96 | 5.0 | 6.0 | 0.00 | 0.30 | 0.30 | 89 | 1014.1 |
| 20260831004242 | 74 | 95 | 3.0 | 3.0 | 0.00 | 0.30 | 0.30 | 89 | 1014.1 |
| 20260831003738 | 74 | 153 | 4.0 | 6.0 | 0.00 | 0.30 | 0.30 | 88 | 1014.2 |
| 20260831003234 | 74 | 164 | 4.0 | 6.0 | 0.00 | 0.30 | 0.30 | 88 | 1014.3 |
| 20260831002733 | 74 | 228 | 3.0 | 3.0 | 0.00 | 0.30 | 0.30 | 88 | 1014.3 |
| 20260831002232 | 74 | 82 | 2.0 | 3.0 | 0.00 | 0.30 | 0.30 | 88 | 1014.2 |
| 20260831001729 | 74 | 61 | 3.0 | 4.0 | 0.00 | 0.30 | 0.30 | 88 | 1014.4 |
| 20260831001223 | 75 | 121 | 3.0 | 4.0 | 0.00 | 0.30 | 0.30 | 87 | 1014.4 |
| 20260831000720 | 75 | 101 | 3.0 | 3.0 | 0.00 | 0.30 | 0.30 | 86 | 1014.5 |
| 20260831000215 | 75 | 359 | 2.0 | 3.0 | 0.00 | 0.30 | 0.30 | 86 | 1014.8 |
| 20260830235714 | 75 | 134 | 3.0 | 4.0 | 0.00 | 0.30 | 0.30 | 85 | 1014.5 |
| 20260830235209 | 75 | 194 | 2.0 | 3.0 | 0.00 | 0.30 | 0.30 | 84 | 1014.7 |
| 20260830234704 | 75 | 14 | 2.0 | 2.0 | 0.00 | 0.30 | 0.30 | 85 | 1014.4 |
| 20260830234200 | 75 | 54 | 3.0 | 4.0 | 0.00 | 0.30 | 0.30 | 85 | 1014.5 |
| 20260830233655 | 75 | 87 | 5.0 | 7.0 | 0.00 | 0.30 | 0.30 | 85 | 1014.5 |
| 20260830233151 | 75 | 157 | 4.0 | 4.0 | 0.00 | 0.30 | 0.30 | 87 | 1014.7 |
| 20260830232646 | 75 | 61 | 2.0 | 3.0 | 0.00 | 0.30 | 0.30 | 87 | 1014.7 |
| 20260830232142 | 75 | 44 | 2.0 | 2.0 | 0.00 | 0.30 | 0.30 | 87 | 1015.0 |
| 20260830231638 | 74 | 336 | 3.0 | 4.0 | 0.00 | 0.30 | 0.30 | 86 | 1014.8 |
| 20260830231138 | 74 | 9 | 2.0 | 3.0 | 0.00 | 0.30 | 0.30 | 89 | 1014.8 |
| 20260830230633 | 74 | 237 | 3.0 | 4.0 | 0.00 | 0.30 | 0.30 | 89 | 1014.6 |
| 20260830230132 | 74 | 148 | 3.0 | 4.0 | 0.00 | 0.30 | 0.30 | 90 | 1014.6 |
| 20260830225628 | 74 | 149 | 4.0 | 6.0 | 0.00 | 0.30 | 0.30 | 89 | 1014.7 |
| 20260830225128 | 74 | 271 | 3.0 | 3.0 | 0.00 | 0.30 | 0.30 | 90 | 1014.7 |
| 20260830224627 | 74 | 347 | 0.0 | 0.0 | 0.00 | 0.30 | 0.30 | 90 | 1014.7 |
| 20260830224123 | 74 | 355 | 1.0 | 2.0 | 0.00 | 0.30 | 0.30 | 90 | 1014.5 |
| 20260830223620 | 74 | 355 | 1.0 | 1.0 | 0.00 | 0.30 | 0.30 | 90 | 1014.6 |
| 20260830223120 | 73 | 18 | 1.0 | 1.0 | 0.00 | 0.30 | 0.30 | 90 | 1014.4 |
| 20260830222620 | 73 | 8 | 0.0 | 0.0 | 0.00 | 0.30 | 0.30 | 90 | 1014.5 |
| 20260830222116 | 73 | 350 | 1.0 | 1.0 | 0.00 | 0.30 | 0.30 | 91 | 1014.7 |
| 20260830221612 | 73 | 1 | 1.0 | 2.0 | 0.00 | 0.30 | 0.30 | 91 | 1014.4 |
| 20260830221108 | 73 | 325 | 2.0 | 2.0 | 0.00 | 0.30 | 0.30 | 89 | 1014.7 |
| 20260830220603 | 73 | 350 | 1.0 | 1.0 | 0.00 | 0.30 | 0.30 | 89 | 1014.5 |
| 20260830220101 | 73 | 350 | 0.0 | 0.0 | 0.00 | 0.30 | 0.30 | 90 | 1014.4 |
| 20260830215600 | 72 | 351 | 0.0 | 0.0 | 0.00 | 0.30 | 0.30 | 91 | 1014.4 |
| 20260830215055 | 72 | 346 | 0.0 | 0.0 | 0.05 | 0.30 | 0.30 | 91 | 1014.4 |
| 20260830214550 | 73 | 153 | 4.0 | 4.0 | 0.05 | 0.30 | 0.30 | 90 | 1014.5 |
| 20260830214045 | 72 | 342 | 1.0 | 2.0 | 0.00 | 0.29 | 0.29 | 92 | 1014.6 |
| 20260830213540 | 72 | 315 | 2.0 | 2.0 | 0.00 | 0.29 | 0.29 | 92 | 1014.2 |
| 20260830213035 | 72 | 89 | 4.0 | 4.0 | 0.07 | 0.29 | 0.29 | 93 | 1014.3 |